| time (UTC) | temp C | wind direction | speed KPH | gust KPH | rain 1hr cm | rain 24hr cm | rain mn cm | humidity % | barometer mb |
| 20260504081529 | 10 | 261 | 11.3 | 16.1 | 0.00 | 0.00 | 0.00 | 71 | 1017.5 |
| 20260504044529 | 12 | 249 | 11.3 | 17.7 | 0.00 | 0.00 | 0.00 | 61 | 1017.8 |
| 20260504043033 | 12 | 248 | 11.3 | 17.7 | 0.00 | 0.00 | 0.00 | 60 | 1017.8 |
| 20260504041532 | 12 | 262 | 12.9 | 17.7 | 0.00 | 0.00 | 0.00 | 60 | 1018.1 |
| 20260504040028 | 12 | 244 | 11.3 | 17.7 | 0.00 | 0.00 | 0.00 | 60 | 1018.0 |
| 20260504034530 | 13 | 250 | 9.7 | 17.7 | 0.00 | 0.00 | 0.00 | 59 | 1018.1 |
| 20260504033031 | 13 | 261 | 11.3 | 16.1 | 0.00 | 0.00 | 0.00 | 57 | 1018.1 |
| 20260504031528 | 13 | 263 | 11.3 | 16.1 | 0.00 | 0.00 | 0.00 | 55 | 1018.0 |
| 20260504030036 | 14 | 265 | 11.3 | 16.1 | 0.00 | 0.00 | 0.00 | 54 | 1018.0 |
| 20260504024530 | 14 | 273 | 11.3 | 19.3 | 0.00 | 0.00 | 0.00 | 53 | 1017.8 |
| 20260504023029 | 15 | 271 | 12.9 | 19.3 | 0.00 | 0.00 | 0.00 | 52 | 1017.7 |
| 20260504021535 | 15 | 249 | 11.3 | 20.9 | 0.00 | 0.00 | 0.00 | 51 | 1017.6 |
| 20260504020035 | 15 | 258 | 12.9 | 20.9 | 0.00 | 0.00 | 0.00 | 50 | 1017.5 |
| 20260504014530 | 15 | 261 | 12.9 | 24.1 | 0.00 | 0.00 | 0.00 | 50 | 1017.0 |
| 20260504013034 | 16 | 246 | 11.3 | 20.9 | 0.00 | 0.00 | 0.00 | 49 | 1016.9 |
| 20260504011533 | 16 | 256 | 9.7 | 19.3 | 0.00 | 0.00 | 0.00 | 49 | 1016.7 |
| 20260504010030 | 16 | 227 | 11.3 | 19.3 | 0.00 | 0.00 | 0.00 | 48 | 1016.7 |
| 20260504004540 | 16 | 266 | 9.7 | 19.3 | 0.00 | 0.00 | 0.00 | 47 | 1016.6 |
| 20260504003029 | 17 | 250 | 11.3 | 19.3 | 0.00 | 0.00 | 0.00 | 46 | 1016.4 |
| 20260504001535 | 17 | 229 | 9.7 | 19.3 | 0.00 | 0.00 | 0.00 | 45 | 1016.2 |
| 20260504000031 | 18 | 244 | 11.3 | 20.9 | 0.00 | 0.00 | 0.00 | 44 | 1016.1 |
| 20260503234534 | 18 | 241 | 11.3 | 20.9 | 0.00 | 0.00 | 0.00 | 44 | 1016.1 |
| 20260503233029 | 18 | 251 | 12.9 | 25.7 | 0.00 | 0.00 | 0.00 | 44 | 1016.0 |
| 20260503231528 | 18 | 227 | 14.5 | 22.5 | 0.00 | 0.00 | 0.00 | 43 | 1016.2 |
| 20260503230030 | 19 | 234 | 11.3 | 19.3 | 0.00 | 0.00 | 0.00 | 41 | 1016.2 |
| 20260503224529 | 19 | 242 | 11.3 | 24.1 | 0.00 | 0.20 | 0.00 | 41 | 1016.2 |
| 20260503223032 | 20 | 233 | 11.3 | 20.9 | 0.00 | 0.20 | 0.00 | 40 | 1016.3 |
| 20260503221535 | 19 | 214 | 8.0 | 27.4 | 0.00 | 0.20 | 0.00 | 40 | 1016.3 |
| 20260503220037 | 19 | 213 | 19.3 | 32.2 | 0.00 | 0.20 | 0.00 | 39 | 1016.4 |
| 20260503214541 | 20 | 192 | 12.9 | 24.1 | 0.00 | 0.41 | 0.00 | 40 | 1016.3 |
| 20260503213034 | 20 | 238 | 12.9 | 22.5 | 0.00 | 0.41 | 0.00 | 38 | 1016.6 |
| 20260503211530 | 20 | 194 | 8.0 | 16.1 | 0.00 | 0.41 | 0.00 | 40 | 1016.8 |
| 20260503210029 | 19 | 224 | 14.5 | 24.1 | 0.00 | 0.41 | 0.00 | 39 | 1017.0 |
| 20260503204531 | 19 | 242 | 6.4 | 19.3 | 0.00 | 0.41 | 0.00 | 43 | 1017.1 |
| 20260503203030 | 19 | 269 | 11.3 | 25.7 | 0.00 | 0.41 | 0.00 | 40 | 1017.3 |
| 20260503201532 | 18 | 313 | 16.1 | 30.6 | 0.00 | 0.41 | 0.00 | 41 | 1017.6 |
| 20260503200030 | 18 | 296 | 1.6 | 16.1 | 0.00 | 0.41 | 0.00 | 41 | 1018.0 |
| 20260503194527 | 18 | 227 | 8.0 | 22.5 | 0.00 | 0.41 | 0.00 | 43 | 1018.2 |
| 20260503193031 | 18 | 194 | 9.7 | 22.5 | 0.00 | 0.41 | 0.00 | 44 | 1018.5 |
| 20260503191530 | 18 | 197 | 6.4 | 19.3 | 0.00 | 0.41 | 0.00 | 44 | 1018.7 |
| 20260503190038 | 18 | 232 | 12.9 | 20.9 | 0.00 | 0.41 | 0.00 | 43 | 1019.1 |
| 20260503184530 | 17 | 230 | 9.7 | 22.5 | 0.00 | 0.41 | 0.00 | 45 | 1019.3 |
| 20260503183038 | 17 | 209 | 14.5 | 25.7 | 0.00 | 0.41 | 0.00 | 45 | 1019.4 |
| 20260503181546 | 17 | 294 | 9.7 | 22.5 | 0.00 | 0.41 | 0.00 | 45 | 1019.6 |
| 20260503180040 | 17 | 194 | 4.8 | 22.5 | 0.00 | 0.41 | 0.00 | 45 | 1019.6 |
| 20260503174529 | 16 | 224 | 11.3 | 19.3 | 0.00 | 0.41 | 0.00 | 46 | 1019.7 |
| 20260503173029 | 16 | 203 | 9.7 | 16.1 | 0.00 | 0.41 | 0.00 | 47 | 1019.9 |
| 20260503171528 | 16 | 276 | 1.6 | 17.7 | 0.00 | 0.41 | 0.00 | 47 | 1020.2 |